Location: ???? ?????????
(44.3677°N, 135.2344°E)
Time: 06:47:09
(UTC+00:00)

Cosmos 1953 - Pass Details

Date: 19 May 2025
Orbit: 485 x 502 km, 82.5° (Epoch: 15 June)

Event Time Altitude Azimuth Distance (km) Brightness Sun altitude
Rises 17:38:06 0° 336° (NNW) 2,567 6.1 -15.8°
Reaches altitude 10° 17:40:36 10° 319° (NW) 1,682 4.9 -15.5°
Maximum altitude 17:43:18 20° 272° (W) 1,201 3.7 -15.2°
Enters shadow 17:43:29 19° 267° (W) 1,203 3.7 -15.1°
